• In Netherlands
  • List of Countries
  • For 7 days
  • Water Temperature
  • Satellite Maps
  • Weather Map
  • Weather Widgets
  • user-avatar
    Login

    Hourly Weather Ganja

    Today, 16 August, Wednesday

    Time Temperature Precipitation Wind Pressure Humidity
    00:00 +26°C° 0 mm 4 mps 724 mmHg 45%
    01:00 +26°C° 0 mm 4 mps 724 mmHg 47%
    02:00 +25°C° 0 mm 3 mps 724 mmHg 48%
    03:00 +25°C° 0 mm 3 mps 724 mmHg 50%
    04:00 +25°C° 0 mm 2 mps 724 mmHg 51%
    05:00 +25°C° 0 mm 2 mps 724 mmHg 52%
    06:00 +24°C° 0 mm 2 mps 724 mmHg 53%
    07:00 +26°C° 0 mm 3 mps 724 mmHg 50%
    08:00 +27°C° 0 mm 3 mps 724 mmHg 46%
    09:00 +28°C° 0 mm 3 mps 725 mmHg 46%
    10:00 +28°C° 0.1 mm 4 mps 724 mmHg 44%
    11:00 +29°C° 0.1 mm 4 mps 724 mmHg 43%
    12:00 +30°C° 0.1 mm 4 mps 724 mmHg 41%
    13:00 +30°C° 0.2 mm 4 mps 724 mmHg 41%
    14:00 +30°C° 0.2 mm 4 mps 724 mmHg 41%
    15:00 +30°C° 0.2 mm 4 mps 723 mmHg 41%
    16:00 +30°C° 0.2 mm 4 mps 724 mmHg 43%
    17:00 +29°C° 0.2 mm 4 mps 724 mmHg 45%
    18:00 +29°C° 0.2 mm 3 mps 724 mmHg 47%
    19:00 +28°C° 0.1 mm 3 mps 724 mmHg 49%
    20:00 +27°C° 0.1 mm 3 mps 724 mmHg 50%
    21:00 +26°C° 0.1 mm 2 mps 725 mmHg 52%
    22:00 +26°C° 0.1 mm 2 mps 725 mmHg 52%
    23:00 +25°C° 0.1 mm 2 mps 725 mmHg 52%

    Tomorrow, 17 August, Thursday

    Time Temperature Precipitation Wind Pressure Humidity
    00:00 +25°C° 0.1 mm 2 mps 725 mmHg 51%
    01:00 +25°C° 0 mm 2 mps 725 mmHg 53%
    02:00 +25°C° 0 mm 1 mps 725 mmHg 54%
    03:00 +24°C° 0 mm 1 mps 724 mmHg 55%
    04:00 +24°C° 0 mm 1 mps 724 mmHg 55%
    05:00 +24°C° 0 mm 1 mps 724 mmHg 56%
    06:00 +24°C° 0 mm 2 mps 724 mmHg 56%
    07:00 +25°C° 0 mm 2 mps 725 mmHg 51%
    08:00 +27°C° 0 mm 2 mps 725 mmHg 46%
    09:00 +28°C° 0 mm 2 mps 725 mmHg 42%
    10:00 +29°C° 0.1 mm 2 mps 725 mmHg 41%
    11:00 +29°C° 0.1 mm 3 mps 724 mmHg 40%
    12:00 +30°C° 0.1 mm 3 mps 724 mmHg 40%
    13:00 +31°C° 0.2 mm 3 mps 724 mmHg 39%
    14:00 +32°C° 0.2 mm 4 mps 724 mmHg 38%
    15:00 +33°C° 0.2 mm 4 mps 723 mmHg 38%
    16:00 +32°C° 0.2 mm 4 mps 723 mmHg 40%
    17:00 +30°C° 0.2 mm 3 mps 723 mmHg 42%
    18:00 +30°C° 0.2 mm 3 mps 724 mmHg 44%
    19:00 +29°C° 0 mm 3 mps 724 mmHg 46%
    20:00 +28°C° 0 mm 3 mps 724 mmHg 48%
    21:00 +27°C° 0 mm 3 mps 725 mmHg 49%
    22:00 +26°C° 0 mm 3 mps 725 mmHg 50%
    23:00 +26°C° 0 mm 2 mps 725 mmHg 51%

    Day after tomorrow, 18 August, Friday

    Time Temperature Precipitation Wind Pressure Humidity
    00:00 +25°C° 0 mm 2 mps 725 mmHg 52%
    01:00 +24°C° 0 mm 2 mps 725 mmHg 54%
    02:00 +24°C° 0 mm 2 mps 725 mmHg 56%
    03:00 +23°C° 0 mm 1 mps 724 mmHg 57%
    04:00 +23°C° 0 mm 2 mps 724 mmHg 57%
    05:00 +23°C° 0 mm 2 mps 724 mmHg 57%
    06:00 +23°C° 0 mm 2 mps 724 mmHg 56%
    07:00 +25°C° 0 mm 2 mps 724 mmHg 51%
    08:00 +27°C° 0 mm 2 mps 724 mmHg 45%
    09:00 +29°C° 0 mm 2 mps 724 mmHg 39%
    10:00 +30°C° 0 mm 3 mps 724 mmHg 36%
    11:00 +31°C° 0 mm 3 mps 724 mmHg 33%
    12:00 +33°C° 0 mm 3 mps 724 mmHg 30%
    13:00 +34°C° 0 mm 3 mps 724 mmHg 29%
    14:00 +35°C° 0 mm 3 mps 724 mmHg 28%
    15:00 +36°C° 0 mm 4 mps 723 mmHg 26%
    16:00 +35°C° 0 mm 4 mps 724 mmHg 28%
    17:00 +35°C° 0 mm 3 mps 724 mmHg 29%
    18:00 +34°C° 0 mm 3 mps 724 mmHg 30%
    19:00 +33°C° 0 mm 4 mps 724 mmHg 32%
    20:00 +30°C° 0 mm 4 mps 725 mmHg 34%
    21:00 +28°C° 0 mm 4 mps 726 mmHg 36%
    22:00 +28°C° 0 mm 4 mps 726 mmHg 37%
    23:00 +27°C° 0 mm 3 mps 726 mmHg 39%

    19 August, Saturday

    Time Temperature Precipitation Wind Pressure Humidity
    00:00 +26°C° 0 mm 3 mps 726 mmHg 40%
    01:00 +25°C° 0 mm 3 mps 726 mmHg 40%
    02:00 +25°C° 0 mm 2 mps 726 mmHg 41%
    03:00 +24°C° 0 mm 2 mps 726 mmHg 41%
    04:00 +24°C° 0 mm 2 mps 726 mmHg 41%
    05:00 +24°C° 0 mm 2 mps 726 mmHg 41%
    06:00 +24°C° 0 mm 2 mps 727 mmHg 41%
    07:00 +26°C° 0 mm 1 mps 727 mmHg 36%
    08:00 +28°C° 0 mm 1 mps 727 mmHg 31%
    09:00 +30°C° 0 mm 1 mps 727 mmHg 27%
    10:00 +31°C° 0 mm 2 mps 727 mmHg 25%
    11:00 +34°C° 0 mm 3 mps 727 mmHg 23%
    12:00 +35°C° 0 mm 4 mps 726 mmHg 21%
    13:00 +36°C° 0 mm 4 mps 726 mmHg 20%
    14:00 +36°C° 0 mm 5 mps 726 mmHg 19%
    15:00 +37°C° 0 mm 5 mps 726 mmHg 19%
    16:00 +36°C° 0 mm 5 mps 726 mmHg 21%
    17:00 +35°C° 0 mm 5 mps 726 mmHg 23%
    18:00 +35°C° 0 mm 4 mps 726 mmHg 25%
    19:00 +33°C° 0 mm 5 mps 727 mmHg 27%
    20:00 +30°C° 0 mm 5 mps 727 mmHg 29%
    21:00 +28°C° 0 mm 5 mps 727 mmHg 31%
    22:00 +28°C° 0 mm 5 mps 727 mmHg 32%
    23:00 +27°C° 0 mm 4 mps 728 mmHg 34%

    20 August, Sunday

    Time Temperature Precipitation Wind Pressure Humidity
    00:00 +26°C° 0 mm 3 mps 728 mmHg 35%
    01:00 +25°C° 0 mm 3 mps 727 mmHg 36%
    02:00 +25°C° 0 mm 2 mps 727 mmHg 36%
    03:00 +24°C° 0 mm 2 mps 727 mmHg 37%
    04:00 +24°C° 0 mm 1 mps 727 mmHg 37%
    05:00 +24°C° 0 mm 1 mps 727 mmHg 37%
    06:00 +24°C° 0 mm 1 mps 727 mmHg 37%
    07:00 +26°C° 0 mm 1 mps 727 mmHg 33%
    08:00 +28°C° 0 mm 1 mps 727 mmHg 30%
    09:00 +30°C° 0 mm 1 mps 727 mmHg 26%
    10:00 +31°C° 0 mm 2 mps 727 mmHg 24%
    11:00 +33°C° 0 mm 3 mps 726 mmHg 22%
    12:00 +35°C° 0 mm 4 mps 726 mmHg 21%
    13:00 +35°C° 0 mm 4 mps 726 mmHg 20%
    14:00 +36°C° 0 mm 4 mps 725 mmHg 19%
    15:00 +37°C° 0 mm 4 mps 725 mmHg 19%
    16:00 +36°C° 0 mm 4 mps 725 mmHg 21%
    17:00 +35°C° 0 mm 4 mps 725 mmHg 23%
    18:00 +34°C° 0 mm 3 mps 725 mmHg 25%
    19:00 +33°C° 0 mm 4 mps 726 mmHg 27%
    20:00 +30°C° 0 mm 4 mps 726 mmHg 30%
    21:00 +28°C° 0 mm 4 mps 727 mmHg 33%
    22:00 +27°C° 0 mm 4 mps 727 mmHg 34%
    23:00 +27°C° 0 mm 3 mps 727 mmHg 36%

    21 August, Monday

    Time Temperature Precipitation Wind Pressure Humidity
    00:00 +26°C° 0 mm 3 mps 727 mmHg 38%
    01:00 +25°C° 0 mm 2 mps 727 mmHg 38%
    02:00 +25°C° 0 mm 2 mps 727 mmHg 39%
    03:00 +24°C° 0 mm 1 mps 726 mmHg 39%
    04:00 +24°C° 0 mm 1 mps 727 mmHg 39%
    05:00 +24°C° 0 mm 2 mps 727 mmHg 38%
    06:00 +24°C° 0 mm 2 mps 727 mmHg 38%
    07:00 +26°C° 0 mm 2 mps 727 mmHg 34%
    08:00 +28°C° 0 mm 2 mps 727 mmHg 30%
    09:00 +30°C° 0 mm 2 mps 726 mmHg 27%
    10:00 +31°C° 0 mm 2 mps 726 mmHg 25%
    11:00 +34°C° 0 mm 3 mps 726 mmHg 23%
    12:00 +35°C° 0 mm 3 mps 725 mmHg 22%
    13:00 +36°C° 0 mm 3 mps 725 mmHg 21%
    14:00 +36°C° 0 mm 4 mps 725 mmHg 20%
    15:00 +37°C° 0 mm 4 mps 724 mmHg 19%
    16:00 +36°C° 0 mm 4 mps 725 mmHg 21%
    17:00 +36°C° 0 mm 4 mps 725 mmHg 23%
    18:00 +35°C° 0 mm 4 mps 725 mmHg 24%
    19:00 +33°C° 0 mm 4 mps 725 mmHg 27%
    20:00 +30°C° 0 mm 4 mps 726 mmHg 30%
    21:00 +29°C° 0 mm 5 mps 726 mmHg 32%
    22:00 +28°C° 0 mm 4 mps 726 mmHg 34%
    23:00 +27°C° 0 mm 4 mps 726 mmHg 36%
    Show more